[[{"header":{"parameterUnit":"m.s-1","parameterCategory":2,"la1":30.2991,"la2":30.254,"lo1":-89.0895,"lo2":-89.0444,"dy":0.0017,"dx":0.0017,"nx":28,"ny":28,"refTime":"2025-06-10T21:00:00:Z","depth":"0","parameterNumber":2,"parameterNumberName":"U-component_of_CURRENTS"},"data":[0,0,0,0,0,0,0,0,0,0,0,0,0,0,0,0,0,0,0,0,0,0,0,0,0,0,0,0,0,0,0,0,0,0,0,0,0,0,0,0,0,0,0,0,0,0,0,0,0,0,0,0,0,0,0,0,0,0,0.1628,0.1629,0,0.1707,0.1707,0.1708,0.1738,0.1738,0.1738,0.1738,0.1876,0.1879,0.1883,0,0,0,0,0,0,0,0,0,0,0,0,0,0.1505,0.1507,0.1628,0.1629,0.163,0.1706,0.1708,0.1709,0.1738,0.1738,0.1738,0.1738,0.1874,0.1879,0.1884,0,0,0,0,0,0,0,0,0,0,0,0,0,0.1568,0.1508,0.1628,0.1655,0.1658,0.1706,0.1708,0.1709,0.1738,0.1738,0.1738,0.1738,0.1873,0.1879,0.1884,0.1925,0,0,0.1902,0.1904,0,0,0,0,0,0,0,0,0.1564,0.1572,0.165,0.1653,0.1657,0.1713,0.1715,0.1784,0.1739,0.1707,0.1738,0.1738,0.1827,0.1837,0.1851,0.1931,0.1937,0.1902,0.1906,0.1908,0.191,0,0,0,0,0,0,0,0.156,0.1569,0.1658,0.1651,0.1655,0.1663,0.1672,0.1728,0.1768,0.171,0.1712,0.1722,0.183,0.1845,0.1854,0.1939,0.1902,0.1907,0.1911,0.1913,0.2199,0.2203,0,0,0,0,0,0,0.1552,0.1565,0.1656,0.1661,0.161,0.1666,0.1675,0.1695,0.1767,0.1777,0.1722,0.1723,0.1835,0.1847,0.1859,0.2006,0.1908,0.1914,0.1917,0.2195,0.22,0.2204,0,0,0,0,0,0,0.1549,0.156,0.1653,0.1614,0.1627,0.1668,0.169,0.1696,0.1712,0.1776,0.1787,0.1731,0.1835,0.1851,0.1932,0.2008,0.1916,0.1921,0.219,0.2196,0.2202,0.224,0,0,0,0,0,0,0.1546,0.1559,0.1572,0.1614,0.1629,0.1694,0.169,0.1698,0.1719,0.1721,0.1787,0.1799,0.1836,0.1923,0.1937,0.2014,0.1926,0.2185,0.2193,0.22,0.2233,0.2246,0.2258,0,0,0,0,0,0.1541,0.1571,0.1572,0.1583,0.1646,0.1695,0.1704,0.1731,0.1719,0.174,0.179,0.1797,0.1984,0.193,0.1946,0.2026,0.2181,0.2191,0.22,0.2228,0.2244,0.2257,0,0,0,0,0,0,0.1536,0.1578,0.158,0.1623,0.1657,0.17,0.1726,0.1729,0.178,0.1786,0.1828,0.1846,0.1957,0.1986,0.1924,0.2139,0.2094,0.2107,0.211,0.2126,0.2138,0.2172,0.1931,0,0,0,0,0,0.1536,0.1566,0.1603,0.1639,0.1655,0.1683,0.1704,0.1722,0.177,0.1789,0.1833,0.1909,0.201,0.2055,0.2135,0.2229,0.2295,0.2303,0.2315,0.2325,0.237,0.2541,0.2572,0.2235,0.2235,0.2235,0,0,0.1547,0.1572,0.1591,0.1639,0.1666,0.1716,0.1697,0.1738,0.1796,0.18,0.189,0.1946,0.2045,0.2168,0.2222,0.2197,0.245,0.2337,0.2344,0.2385,0.2554,0.2587,0.2616,0.2241,0.224,0.2239,0,0,0.1594,0.1602,0.1646,0.1669,0.1712,0.174,0.1748,0.1791,0.1828,0.1901,0.1955,0.2056,0.2153,0.2272,0.2339,0.247,0.2508,0.2491,0.2581,0.2745,0.2774,0.28,0.2886,0.292,0.2497,0.2497,0.2497,0,0.1609,0.1678,0.1667,0.1711,0.1758,0.1751,0.1823,0.1856,0.1922,0.2005,0.1937,0.2177,0.2223,0.2453,0.2492,0.2501,0.257,0.2502,0.2759,0.2787,0.2814,0.2896,0.2933,0.25,0.25,0.25,0.2499,0,0.1702,0.1744,0.1773,0.1835,0.1865,0.1933,0.1969,0.202,0.2039,0.2106,0.2286,0.2341,0.2505,0.2528,0.2539,0.2781,0.2758,0.2747,0.271,0.285,0.2927,0.2965,0.2504,0.2503,0.2502,0.2502,0,0,0.1807,0.1841,0.1853,0.1913,0.195,0.2009,0.209,0.2231,0.2345,0.238,0.2559,0.2689,0.2722,0.2804,0.2841,0.2954,0.3151,0.2922,0.293,0.2988,0.3475,0.3406,0.3439,0.3182,0.319,0.3196,0.3437,0,0.1914,0.2025,0.2008,0.2138,0.2221,0.2225,0.2316,0.242,0.2494,0.2647,0.2745,0.2907,0.283,0.2909,0.3019,0.3139,0.3261,0.3085,0.3352,0.336,0.3267,0.3486,0.3428,0.3636,0.3474,0.348,0.3485,0,0.2055,0.2114,0.2239,0.2347,0.2383,0.2436,0.262,0.2702,0.2882,0.2941,0.3091,0.3149,0.3351,0.3229,0.3506,0.3395,0.346,0.3505,0.3516,0.3479,0.3365,0.3485,0.3711,0.3602,0.3543,0.3538,0.3534,0,0.2205,0.2305,0.2422,0.245,0.2537,0.2608,0.2677,0.282,0.2904,0.3146,0.3212,0.3455,0.3541,0.3697,0.3735,0.3666,0.3992,0.3919,0.3923,0.3914,0.3938,0.3919,0.4086,0.4156,0.4156,0.4155,0.4154,0,0.2367,0.2468,0.2497,0.2557,0.2701,0.2737,0.2894,0.2989,0.3123,0.3247,0.3374,0.3481,0.366,0.3811,0.3869,0.4011,0.4118,0.4013,0.4021,0.3941,0.3921,0.388,0.3824,0.4164,0.4162,0.416,0.4159,0,0.2493,0.2523,0.2646,0.2732,0.2755,0.2856,0.2917,0.3024,0.3154,0.3303,0.3373,0.3559,0.3768,0.3903,0.4158,0.4159,0.4236,0.4332,0.4178,0.4163,0.4038,0.3986,0.4056,0.3968,0.443,0.4431,0.4431,0,0.2561,0.2635,0.2714,0.2741,0.276,0.2869,0.2911,0.3026,0.31,0.3317,0.3385,0.3625,0.3756,0.4082,0.422,0.4404,0.4257,0.4415,0.4292,0.4098,0.4049,0.3834,0.3739,0.4323,0.4323,0.4322,0.4322,0,0.2651,0.2663,0.2722,0.2764,0.2802,0.285,0.2923,0.2963,0.3106,0.3215,0.3362,0.3496,0.3817,0.4007,0.425,0.4336,0.4246,0.4406,0.4313,0.4101,0.3787,0.368,0.4022,0.4318,0.4319,0.4319,0.4319,0.4319,0.2666,0.2696,0.2721,0.2764,0.2791,0.2791,0.2796,0.287,0.2946,0.3065,0.3256,0.3417,0.3805,0.4145,0.4198,0.428,0.4192,0.4222,0.4212,0.4034,0.3858,0.4141,0.436,0.4361,0.4361,0.4362,0.4362,0,0.264,0.266,0.2703,0.2713,0.2692,0.2726,0.2754,0.2732,0.2761,0.2948,0.3062,0.3424,0.3698,0.3965,0.4229,0.4135,0.3946,0.4035,0.3767,0.3711,0.4106,0.4004,0.4027,0.4027,0.4027,0.4027,0.4027,0.4027,0.2624,0.2625,0.2639,0.2582,0.2577,0.2498,0.248,0.2478,0.257,0.2689,0.2863,0.3085,0.3573,0.4026,0.4107,0.4014,0.3722,0.3585,0.3516,0.383,0.3845,0.3859,0.3749,0.3719,0.3719,0.3,0.2995,0.2992]},{"header":{"parameterUnit":"m.s-1","parameterCategory":2,"la1":30.2991,"la2":30.254,"lo1":-89.0895,"lo2":-89.0444,"dy":0.0017,"dx":0.0017,"nx":28,"ny":28,"refTime":"2025-06-10T21:00:00:Z","depth":"0","parameterNumber":3,"parameterNumberName":"V-component_of_CURRENTS"},"data":[0,0,0,0,0,0,0,0,0,0,0,0,0,0,0,0,0,0,0,0,0,0,0,0,0,0,0,0,0,0,0,0,0,0,0,0,0,0,0,0,0,0,0,0,0,0,0,0,0,0,0,0,0,0,0,0,0,0,0.0114,0.0115,0,0.0171,0.0171,0.0171,0.0162,0.0161,0.0161,0.0161,0.0261,0.0263,0.0266,0,0,0,0,0,0,0,0,0,0,0,0,0,-0.009,-0.0087,0.0114,0.0115,0.0117,0.0171,0.0171,0.0171,0.0162,0.0161,0.0161,0.0161,0.026,0.0263,0.0266,0,0,0,0,0,0,0,0,0,0,0,0,0,-0.0023,-0.0086,0.0113,0.0126,0.0128,0.0171,0.0171,0.0171,0.0162,0.0161,0.0161,0.0161,0.0259,0.0263,0.0267,0.0294,0,0,0.0279,0.0281,0,0,0,0,0,0,0,0,-0.0027,-0.0017,0.0123,0.0125,0.0128,0.0168,0.0136,0.0218,0.0162,0.0139,0.0161,0.0161,0.024,0.0246,0.0242,0.0299,0.0303,0.0279,0.0282,0.0284,0.0285,0,0,0,0,0,0,0,-0.0032,-0.002,0.0126,0.0125,0.0128,0.01,0.0109,0.015,0.0182,0.0141,0.0142,0.0165,0.024,0.0238,0.0245,0.0305,0.0279,0.0283,0.0286,0.0287,0.0409,0.0409,0,0,0,0,0,0,-0.0013,-0.0023,0.0125,0.0129,0.006,0.0105,0.0115,0.0147,0.0181,0.0189,0.0165,0.0164,0.0231,0.024,0.0248,0.0365,0.0284,0.0288,0.029,0.0408,0.0409,0.041,0,0,0,0,0,0,-0.0018,-0.0,0.0123,0.0061,0.0076,0.011,0.0146,0.0149,0.0149,0.0201,0.0207,0.0164,0.0231,0.0243,0.0276,0.0366,0.0289,0.0293,0.0407,0.0408,0.0409,0.0547,0,0,0,0,0,0,-0.0024,-0.0002,0.0014,0.0063,0.0081,0.0143,0.0147,0.015,0.0167,0.0167,0.0203,0.0211,0.0232,0.0269,0.028,0.037,0.0296,0.0406,0.0407,0.0409,0.0542,0.0553,0.0563,0,0,0,0,0,-0.0031,-0.0002,0.0015,0.0032,0.0107,0.0144,0.0148,0.0164,0.0168,0.0163,0.0185,0.021,0.0287,0.0272,0.0285,0.0379,0.0405,0.0407,0.0409,0.0537,0.0551,0.0563,0,0,0,0,0,0,-0.0083,0.0003,0.0021,0.0075,0.0105,0.0146,0.0151,0.0166,0.0177,0.0178,0.0213,0.0223,0.0286,0.0291,0.0274,0.0409,0.0354,0.0358,0.0447,0.046,0.0471,0.0555,0.03,0,0,0,0,0,-0.0082,-0.0038,0.0025,0.0065,0.0081,0.0114,0.0129,0.0143,0.0172,0.0175,0.0208,0.0244,0.0302,0.0343,0.0365,0.0444,0.0418,0.0508,0.0519,0.0528,0.0599,0.0568,0.0584,0.0415,0.0415,0.0415,0,0,-0.0087,-0.0036,-0.001,0.0056,0.0078,0.0144,0.0119,0.0145,0.0229,0.0189,0.0279,0.027,0.0318,0.0401,0.0434,0.0426,0.0553,0.053,0.0539,0.0607,0.0572,0.0589,0.0604,0.0417,0.0416,0.0416,0,0,-0.0059,-0.0036,0.0019,0.0052,0.0103,0.014,0.0152,0.0194,0.0232,0.0295,0.0307,0.035,0.0411,0.0492,0.054,0.062,0.0588,0.0614,0.0779,0.0746,0.0761,0.0774,0.0732,0.074,0.0647,0.0647,0.0647,0,-0.0063,0.0042,0.0032,0.0096,0.0171,0.0152,0.0253,0.0283,0.0334,0.0414,0.0335,0.0472,0.0482,0.0674,0.0699,0.0661,0.0612,0.0736,0.0764,0.0777,0.0788,0.0741,0.0749,0.0654,0.0653,0.0652,0.0652,0,0.003,0.0109,0.0137,0.0247,0.0292,0.0366,0.0432,0.0476,0.0506,0.0567,0.0693,0.0675,0.078,0.0777,0.0777,0.0906,0.0831,0.0758,0.0744,0.0814,0.0759,0.0764,0.0664,0.0661,0.0659,0.0657,0,0,0.0114,0.0197,0.0224,0.032,0.0403,0.0472,0.0593,0.0754,0.0885,0.0876,0.1052,0.1113,0.1084,0.1136,0.1118,0.111,0.1114,0.0988,0.0982,0.0969,0.1026,0.0984,0.0984,0.1023,0.1026,0.1028,0.0946,0,0.0237,0.0391,0.0414,0.061,0.0726,0.0758,0.0893,0.1006,0.1077,0.1203,0.1224,0.1334,0.1233,0.1271,0.1255,0.1161,0.114,0.1144,0.0944,0.094,0.0912,0.0994,0.0952,0.0878,0.095,0.0951,0.0952,0,0.0407,0.0496,0.0683,0.0872,0.0925,0.1017,0.1261,0.1373,0.1519,0.1566,0.1653,0.1629,0.1705,0.1528,0.1445,0.144,0.127,0.115,0.1141,0.1081,0.0911,0.0822,0.0884,0.0628,0.0959,0.0959,0.0958,0,0.057,0.0739,0.0907,0.0964,0.1121,0.1232,0.1334,0.1498,0.1632,0.1792,0.1866,0.1915,0.1925,0.1756,0.1524,0.1476,0.1348,0.1236,0.1046,0.1038,0.0965,0.0949,0.0791,0.1149,0.1149,0.115,0.115,0,0.0771,0.0926,0.0985,0.108,0.1301,0.137,0.161,0.1713,0.1869,0.2044,0.2052,0.2167,0.1966,0.1864,0.1616,0.1376,0.1413,0.1129,0.1041,0.1005,0.0994,0.0736,0.0603,0.1146,0.1147,0.1148,0.1148,0,0.0936,0.0985,0.1176,0.1317,0.1374,0.1527,0.172,0.1881,0.2017,0.2225,0.2275,0.2351,0.2254,0.2013,0.1743,0.1507,0.1113,0.1141,0.1119,0.1033,0.0645,0.0522,0.0399,0.0234,0.0964,0.0963,0.0962,0,0.1048,0.114,0.1288,0.138,0.144,0.1639,0.1771,0.1939,0.2095,0.2343,0.2448,0.2454,0.2495,0.2131,0.1712,0.1316,0.1065,0.1002,0.093,0.0678,0.0474,0.044,0.0306,0.0856,0.0854,0.0853,0.0852,0,0.1213,0.1223,0.1325,0.1484,0.1627,0.1809,0.2001,0.2137,0.2346,0.2517,0.2726,0.2787,0.2507,0.2159,0.1639,0.1342,0.0838,0.0962,0.0703,0.0424,0.0377,0.0155,0.0837,0.0839,0.084,0.0841,0.0842,0.0842,0.1298,0.1369,0.1445,0.1619,0.176,0.1954,0.2128,0.2315,0.256,0.2834,0.2888,0.3024,0.2552,0.1889,0.1445,0.0673,0.0717,0.0434,0.0317,0.0315,0.0148,0.0824,0.0724,0.0724,0.0725,0.0725,0.0726,0,0.1391,0.1448,0.1586,0.1778,0.1922,0.1995,0.2266,0.2442,0.2707,0.2939,0.3118,0.2991,0.2326,0.1667,0.0641,0.0109,-0.0076,-0.0161,-0.0253,-0.0359,0.023,0.0214,-0.0004,-0.0003,-0.0003,-0.0003,-0.0003,-0.0002,0.1451,0.1564,0.1629,0.1883,0.2005,0.2249,0.2408,0.2643,0.2856,0.3124,0.3234,0.33,0.2868,0.1085,-0.0149,-0.0459,-0.0839,-0.0854,-0.1055,-0.0703,-0.0657,-0.0614,-0.0661,-0.1058,-0.1059,-0.1604,-0.1609,-0.1614]}],[{"header":{"parameterUnit":"m.s-1","parameterCategory":2,"la1":30.2991,"la2":30.254,"lo1":-89.0895,"lo2":-89.0444,"dy":0.0017,"dx":0.0017,"nx":28,"ny":28,"refTime":"2025-06-10T21:00:00:Z","depth":"2","parameterNumber":2,"parameterNumberName":"U-component_of_CURRENTS"},"data":[0,0,0,0,0,0,0,0,0,0,0,0,0,0,0,0,0,0,0,0,0,0,0,0,0,0,0,0,0,0,0,0,0,0,0,0,0,0,0,0,0,0,0,0,0,0,0,0,0,0,0,0,0,0,0,0,0,0,0.167,0.167,0,0.1758,0.1759,0.176,0.1781,0.178,0.1779,0.1778,0.1785,0.1786,0.1786,0,0,0,0,0,0,0,0,0,0,0,0,0,0.1549,0.1551,0.1669,0.167,0.1671,0.1757,0.1759,0.176,0.1781,0.178,0.1779,0.1778,0.1784,0.1785,0.1787,0,0,0,0,0,0,0,0,0,0,0,0,0,0.1618,0.1552,0.1669,0.169,0.1693,0.1757,0.1759,0.1761,0.1781,0.178,0.1779,0.1778,0.1784,0.1785,0.1787,0.1819,0,0,0.1791,0.1791,0,0,0,0,0,0,0,0,0.1614,0.1622,0.1686,0.1689,0.1692,0.1755,0.1719,0.1775,0.1781,0.175,0.1778,0.1777,0.1767,0.1769,0.1793,0.1819,0.182,0.1791,0.1792,0.1792,0.1793,0,0,0,0,0,0,0,0.1609,0.1619,0.1707,0.1687,0.1691,0.1706,0.1714,0.173,0.1764,0.1753,0.1754,0.1761,0.1768,0.1792,0.1793,0.182,0.1791,0.1792,0.1793,0.1794,0.1969,0.1972,0,0,0,0,0,0,0.1594,0.1615,0.1704,0.1709,0.1647,0.1708,0.1718,0.1738,0.1766,0.1769,0.1761,0.1761,0.179,0.1791,0.1793,0.1879,0.1792,0.1794,0.1794,0.1965,0.1969,0.1974,0,0,0,0,0,0,0.1591,0.1602,0.17,0.1661,0.1674,0.1711,0.1734,0.174,0.1762,0.1773,0.1775,0.1776,0.1789,0.1791,0.1846,0.1877,0.1794,0.1796,0.196,0.1966,0.1972,0.2021,0,0,0,0,0,0,0.1588,0.1601,0.1615,0.1661,0.1676,0.1746,0.1735,0.1743,0.1767,0.1768,0.1786,0.1786,0.1788,0.1844,0.1847,0.1878,0.1797,0.1955,0.1963,0.197,0.2015,0.2028,0.2039,0,0,0,0,0,0.1584,0.1615,0.1616,0.1627,0.1693,0.1747,0.1758,0.178,0.1769,0.1793,0.1824,0.1785,0.1892,0.1849,0.1851,0.1882,0.1952,0.1961,0.1969,0.2009,0.2025,0.2039,0,0,0,0,0,0,0.158,0.1622,0.1623,0.1667,0.1703,0.175,0.1776,0.1783,0.1828,0.1828,0.1829,0.1834,0.1899,0.1897,0.1848,0.1963,0.1917,0.1927,0.1947,0.1962,0.1974,0.197,0.1798,0,0,0,0,0,0.1582,0.1613,0.1652,0.1688,0.1705,0.1737,0.1761,0.1778,0.1818,0.1836,0.1849,0.1884,0.194,0.1952,0.1995,0.2044,0.2059,0.2074,0.2086,0.2096,0.2102,0.219,0.221,0.2002,0.2002,0.2002,0,0,0.1592,0.1618,0.1636,0.1688,0.1717,0.1764,0.175,0.1794,0.1841,0.1829,0.1895,0.1925,0.1969,0.2042,0.2069,0.2036,0.2164,0.2107,0.2114,0.2115,0.2201,0.2221,0.2239,0.2008,0.2007,0.2006,0,0,0.1634,0.1648,0.169,0.1718,0.1761,0.1787,0.1796,0.1844,0.1872,0.1937,0.196,0.2015,0.2069,0.2122,0.2153,0.2259,0.2234,0.227,0.2311,0.2397,0.2414,0.2429,0.246,0.2477,0.2265,0.2265,0.2265,0,0.1648,0.1707,0.1712,0.1757,0.1792,0.1796,0.1855,0.189,0.1951,0.1984,0.1963,0.2103,0.2114,0.2236,0.2271,0.2281,0.2311,0.2239,0.2409,0.2425,0.2439,0.2467,0.2486,0.2268,0.2268,0.2267,0.2267,0,0.1729,0.1767,0.1795,0.1853,0.1886,0.194,0.1976,0.2013,0.2029,0.206,0.2167,0.2216,0.2287,0.2312,0.2313,0.2437,0.2418,0.2417,0.2357,0.2462,0.2486,0.2504,0.2273,0.2272,0.2271,0.227,0,0,0.1801,0.1847,0.186,0.1872,0.1945,0.1966,0.2051,0.2127,0.2164,0.2224,0.2298,0.2401,0.2399,0.2439,0.2463,0.253,0.2634,0.2508,0.2511,0.2513,0.2798,0.2695,0.2704,0.2665,0.2669,0.2672,0.2766,0,0.1878,0.1944,0.1976,0.204,0.2067,0.21,0.2168,0.222,0.2263,0.232,0.2391,0.2469,0.2458,0.2493,0.2562,0.2633,0.2689,0.2607,0.2719,0.2722,0.2597,0.2725,0.2543,0.2605,0.2784,0.2787,0.2789,0,0.1963,0.1988,0.2066,0.2091,0.2113,0.2162,0.2239,0.2301,0.2387,0.2424,0.2511,0.254,0.2664,0.2623,0.2798,0.2749,0.277,0.281,0.2815,0.2713,0.2654,0.2538,0.2631,0.2819,0.2817,0.2814,0.2812,0,0.1969,0.2043,0.2096,0.2115,0.2166,0.2216,0.2255,0.2335,0.2379,0.2495,0.2528,0.2668,0.2726,0.2832,0.2888,0.2858,0.3052,0.3017,0.2947,0.2938,0.2801,0.2773,0.3127,0.3127,0.3127,0.3127,0.3126,0,0.2016,0.204,0.2093,0.2111,0.2155,0.2205,0.2271,0.2328,0.2424,0.2489,0.2572,0.266,0.2782,0.2882,0.2937,0.3005,0.3098,0.2979,0.2977,0.2812,0.2785,0.2982,0.2964,0.313,0.3129,0.3129,0.3128,0,0.1971,0.2028,0.2056,0.2126,0.215,0.2166,0.2241,0.2282,0.2393,0.249,0.2535,0.2669,0.2815,0.2907,0.3065,0.3043,0.3138,0.3123,0.2889,0.2857,0.2943,0.2928,0.3066,0.3064,0.3062,0.306,0.3058,0,0.1941,0.1964,0.2033,0.2043,0.2074,0.2115,0.2155,0.2258,0.2318,0.2511,0.2561,0.2705,0.2794,0.296,0.2994,0.3068,0.3113,0.2889,0.2793,0.2964,0.2949,0.2936,0.2923,0.2631,0.2626,0.2622,0.2619,0,0.1866,0.1908,0.192,0.1958,0.1995,0.2032,0.2109,0.2148,0.231,0.2417,0.2593,0.2683,0.2799,0.2794,0.2826,0.2841,0.2868,0.2806,0.3111,0.2657,0.2558,0.254,0.2542,0.2584,0.2588,0.259,0.2592,0.2594,0.1791,0.1774,0.1819,0.184,0.189,0.1959,0.1978,0.2089,0.2196,0.2311,0.2478,0.2531,0.2589,0.2534,0.2526,0.2507,0.2675,0.2572,0.2584,0.26,0.2516,0.2417,0.2399,0.2401,0.2403,0.2405,0.2406,0,0.1676,0.1684,0.1699,0.1736,0.1771,0.1853,0.1951,0.1961,0.2074,0.2162,0.2257,0.2117,0.2128,0.2192,0.2135,0.215,0.2117,0.2055,0.202,0.2059,0.2092,0.198,0.1722,0.1719,0.1716,0.1714,0,0,0.1598,0.1576,0.1597,0.1619,0.1675,0.1725,0.178,0.18,0.1847,0.1826,0.1826,0.1919,0.21,0.1845,0.1863,0.1792,0.1884,0.1714,0.2275,0.2272,0.23,0.242,0.2294,0,0,0,0,0]},{"header":{"parameterUnit":"m.s-1","parameterCategory":2,"la1":30.2991,"la2":30.254,"lo1":-89.0895,"lo2":-89.0444,"dy":0.0017,"dx":0.0017,"nx":28,"ny":28,"refTime":"2025-06-10T21:00:00:Z","depth":"2","parameterNumber":3,"parameterNumberName":"V-component_of_CURRENTS"},"data":[0,0,0,0,0,0,0,0,0,0,0,0,0,0,0,0,0,0,0,0,0,0,0,0,0,0,0,0,0,0,0,0,0,0,0,0,0,0,0,0,0,0,0,0,0,0,0,0,0,0,0,0,0,0,0,0,0,0,-0.0247,-0.0249,0,-0.0313,-0.0312,-0.0312,-0.0384,-0.0387,-0.0389,-0.0392,-0.055,-0.0551,-0.0553,0,0,0,0,0,0,0,0,0,0,0,0,0,-0.0259,-0.0257,-0.0247,-0.0249,-0.0252,-0.0313,-0.0312,-0.0312,-0.0383,-0.0387,-0.039,-0.0393,-0.0549,-0.0551,-0.0553,0,0,0,0,0,0,0,0,0,0,0,0,0,-0.0266,-0.0256,-0.0247,-0.0307,-0.0315,-0.0313,-0.0312,-0.0311,-0.0383,-0.0387,-0.0391,-0.0394,-0.0548,-0.0551,-0.0554,-0.0493,0,0,-0.0562,-0.0563,0,0,0,0,0,0,0,0,-0.0265,-0.0263,-0.0296,-0.0303,-0.0312,-0.0359,-0.0376,-0.0382,-0.0382,-0.0339,-0.0392,-0.0396,-0.0502,-0.0509,-0.0488,-0.05,-0.0507,-0.0562,-0.0564,-0.0565,-0.0566,0,0,0,0,0,0,0,-0.0265,-0.0262,-0.0256,-0.0299,-0.0308,-0.0359,-0.0361,-0.0376,-0.0387,-0.0343,-0.0353,-0.0385,-0.0506,-0.0484,-0.0493,-0.0509,-0.0562,-0.0564,-0.0566,-0.0567,-0.0556,-0.0554,0,0,0,0,0,0,-0.0281,-0.026,-0.0254,-0.026,-0.0317,-0.0356,-0.0358,-0.0326,-0.0385,-0.0402,-0.0382,-0.0389,-0.0478,-0.0489,-0.0499,-0.0493,-0.0565,-0.0567,-0.0569,-0.0558,-0.0555,-0.0553,0,0,0,0,0,0,-0.028,-0.0277,-0.0252,-0.028,-0.0282,-0.0353,-0.0316,-0.0326,-0.0309,-0.0417,-0.0433,-0.0359,-0.0482,-0.0495,-0.0514,-0.0499,-0.0569,-0.0571,-0.056,-0.0557,-0.0554,-0.0443,0,0,0,0,0,0,-0.0278,-0.0274,-0.0254,-0.0278,-0.0282,-0.0249,-0.0314,-0.0325,-0.0332,-0.034,-0.0402,-0.042,-0.0486,-0.0509,-0.0516,-0.0504,-0.0573,-0.0562,-0.0559,-0.0555,-0.0449,-0.0437,-0.0426,0,0,0,0,0,-0.0277,-0.0246,-0.025,-0.0253,-0.025,-0.0249,-0.0251,-0.0308,-0.0327,-0.0304,-0.0352,-0.0418,-0.0493,-0.0508,-0.0518,-0.0506,-0.0564,-0.056,-0.0555,-0.0454,-0.0439,-0.0426,0,0,0,0,0,0,-0.0259,-0.0253,-0.0258,-0.023,-0.0239,-0.0268,-0.0271,-0.0283,-0.029,-0.0304,-0.0383,-0.0403,-0.0412,-0.046,-0.0476,-0.049,-0.0542,-0.0539,-0.0462,-0.0448,-0.0437,-0.0494,-0.0575,0,0,0,0,0,-0.0238,-0.0201,-0.0215,-0.0193,-0.0191,-0.0211,-0.0219,-0.024,-0.0264,-0.0269,-0.0318,-0.0366,-0.0392,-0.0424,-0.0451,-0.045,-0.051,-0.045,-0.0439,-0.0429,-0.0479,-0.0489,-0.0484,-0.0539,-0.0539,-0.0539,0,0,-0.0238,-0.0227,-0.0213,-0.0187,-0.0193,-0.0187,-0.022,-0.0216,-0.022,-0.0286,-0.0296,-0.0316,-0.0376,-0.0384,-0.0395,-0.0433,-0.0441,-0.0423,-0.0414,-0.0472,-0.0484,-0.0479,-0.0475,-0.0536,-0.0537,-0.0537,0,0,-0.022,-0.0186,-0.0154,-0.0144,-0.015,-0.0161,-0.0151,-0.0157,-0.0166,-0.0163,-0.0213,-0.0234,-0.0266,-0.0321,-0.035,-0.0287,-0.0364,-0.0276,-0.0285,-0.0291,-0.0287,-0.0285,-0.0347,-0.0352,-0.0287,-0.0287,-0.0287,0,-0.0222,-0.0175,-0.0152,-0.0124,-0.0138,-0.0143,-0.0131,-0.0125,-0.0142,-0.0165,-0.0167,-0.0207,-0.0253,-0.0285,-0.0278,-0.0269,-0.0295,-0.033,-0.0278,-0.0277,-0.0277,-0.0341,-0.0347,-0.0281,-0.0282,-0.0283,-0.0283,0,-0.019,-0.0154,-0.0135,-0.0098,-0.0096,-0.0081,-0.009,-0.0083,-0.0092,-0.0118,-0.0126,-0.0149,-0.0206,-0.0186,-0.0227,-0.0238,-0.0263,-0.0244,-0.0317,-0.0265,-0.0335,-0.0344,-0.0273,-0.0275,-0.0277,-0.0278,0,0,-0.0208,-0.0124,-0.0121,-0.0115,-0.008,-0.0089,-0.0075,-0.0095,-0.0118,-0.0106,-0.0145,-0.0153,-0.0175,-0.021,-0.022,-0.0231,-0.0244,-0.0244,-0.0246,-0.0316,-0.0289,-0.0298,-0.031,-0.0191,-0.0191,-0.0192,-0.0337,0,-0.02,-0.0146,-0.0104,-0.0095,-0.009,-0.0077,-0.0073,-0.0093,-0.0108,-0.0144,-0.016,-0.0177,-0.0176,-0.018,-0.0196,-0.0214,-0.0263,-0.0211,-0.0325,-0.0331,-0.0352,-0.0318,-0.0267,-0.039,-0.0346,-0.0348,-0.0349,0,-0.0219,-0.0176,-0.0139,-0.0116,-0.0111,-0.01,-0.0131,-0.0115,-0.0153,-0.0158,-0.0182,-0.0203,-0.0231,-0.0216,-0.0266,-0.022,-0.0287,-0.0301,-0.0305,-0.0377,-0.0356,-0.0436,-0.0409,-0.0365,-0.0363,-0.0362,-0.0361,0,-0.0304,-0.0235,-0.0209,-0.0195,-0.0145,-0.0142,-0.0124,-0.014,-0.0132,-0.0163,-0.0172,-0.0208,-0.0219,-0.0253,-0.0306,-0.0281,-0.0369,-0.0337,-0.0429,-0.0432,-0.0454,-0.0457,-0.043,-0.043,-0.043,-0.0429,-0.0429,0,-0.0352,-0.0348,-0.0246,-0.0233,-0.0226,-0.0184,-0.018,-0.0167,-0.0155,-0.0138,-0.0177,-0.0171,-0.0221,-0.0278,-0.0327,-0.0403,-0.0391,-0.0463,-0.0466,-0.0411,-0.0408,-0.044,-0.044,-0.0435,-0.0433,-0.0432,-0.0431,0,-0.0462,-0.0389,-0.0366,-0.0283,-0.0258,-0.0259,-0.0177,-0.016,-0.0141,-0.0117,-0.0114,-0.0164,-0.02,-0.0286,-0.0368,-0.0431,-0.0492,-0.0548,-0.0511,-0.0507,-0.0564,-0.0555,-0.0664,-0.0666,-0.0667,-0.0668,-0.0669,0,-0.0502,-0.0492,-0.0392,-0.0352,-0.0304,-0.0269,-0.021,-0.0158,-0.0111,-0.0082,-0.0061,-0.0135,-0.0107,-0.0263,-0.0405,-0.0527,-0.0555,-0.0619,-0.0571,-0.0594,-0.0587,-0.0576,-0.0566,-0.0564,-0.0564,-0.0564,-0.0564,0,-0.0566,-0.0523,-0.0469,-0.0372,-0.0308,-0.0238,-0.0148,-0.0109,-0.0016,0.004,0.0135,0.0165,-0.0025,-0.0111,-0.0364,-0.0457,-0.0575,-0.0624,-0.0647,-0.0498,-0.0507,-0.0496,-0.0489,-0.0564,-0.0564,-0.0564,-0.0564,-0.0564,-0.059,-0.0568,-0.0456,-0.0374,-0.0288,-0.0163,-0.0075,0.0057,0.0187,0.0356,0.0318,0.0425,0.0183,-0.005,-0.0285,-0.0581,-0.058,-0.0643,-0.064,-0.0638,-0.0585,-0.0593,-0.0662,-0.0662,-0.0663,-0.0663,-0.0664,0,-0.059,-0.0535,-0.0446,-0.0317,-0.0192,-0.0152,0.0017,0.0164,0.0393,0.0531,0.0677,0.0543,0.0387,0.009,-0.0311,-0.0549,-0.0561,-0.0646,-0.0586,-0.0585,-0.0585,-0.0526,-0.0589,-0.059,-0.059,-0.059,0,0,-0.0581,-0.0499,-0.0429,-0.0223,-0.0122,0.0072,0.0193,0.0433,0.0591,0.0815,0.0895,0.0906,0.0534,0.0266,-0.0099,-0.033,-0.04,-0.0389,-0.0422,-0.0308,-0.0304,-0.0561,-0.0468,0,0,0,0,0]}],[{"header":{"parameterUnit":"m.s-1","parameterCategory":2,"la1":30.2991,"la2":30.254,"lo1":-89.0895,"lo2":-89.0444,"dy":0.0017,"dx":0.0017,"nx":28,"ny":28,"refTime":"2025-06-10T21:00:00:Z","depth":"4","parameterNumber":2,"parameterNumberName":"U-component_of_CURRENTS"},"data":[0,0,0,0,0,0,0,0,0,0,0,0,0,0,0,0,0,0,0,0,0,0,0,0,0,0,0,0,0,0,0,0,0,0,0,0,0,0,0,0,0,0,0,0,0,0,0,0,0,0,0,0,0,0,0,0,0,0,0.089,0.0891,0,0.093,0.093,0.093,0.0948,0.0948,0.0949,0.0949,0.1002,0.1002,0.1003,0,0,0,0,0,0,0,0,0,0,0,0,0,0.0795,0.0796,0.089,0.0891,0.0892,0.093,0.093,0.093,0.0948,0.0948,0.0949,0.095,0.1001,0.1002,0.1003,0,0,0,0,0,0,0,0,0,0,0,0,0,0.083,0.0797,0.089,0.091,0.0913,0.093,0.093,0.093,0.0948,0.0948,0.0949,0.095,0.1001,0.1002,0.1004,0.0997,0,0,0.1008,0.1008,0,0,0,0,0,0,0,0,0.0828,0.0833,0.0906,0.0909,0.0912,0.094,0.0916,0.0955,0.0948,0.0928,0.0949,0.095,0.0986,0.0988,0.0985,0.0999,0.1001,0.1008,0.1009,0.1009,0.101,0,0,0,0,0,0,0,0.0826,0.0831,0.09,0.0907,0.0911,0.0906,0.0912,0.0923,0.0947,0.093,0.0933,0.0947,0.0987,0.0984,0.0987,0.1002,0.1008,0.1009,0.101,0.101,0.1099,0.1101,0,0,0,0,0,0,0.0834,0.0829,0.0899,0.0902,0.0878,0.0908,0.0914,0.0925,0.0947,0.0953,0.0946,0.0947,0.0981,0.0985,0.0989,0.1071,0.1009,0.1011,0.1011,0.1098,0.11,0.1101,0,0,0,0,0,0,0.0832,0.084,0.0897,0.0871,0.0879,0.091,0.0922,0.0926,0.0956,0.0961,0.0965,0.0976,0.0982,0.0987,0.1031,0.107,0.1011,0.1012,0.1096,0.1098,0.11,0.1178,0,0,0,0,0,0,0.0829,0.0839,0.086,0.0872,0.0881,0.0933,0.0922,0.0926,0.0964,0.0967,0.0988,0.0991,0.0983,0.1029,0.1032,0.107,0.1013,0.1094,0.1097,0.11,0.1173,0.1183,0.119,0,0,0,0,0,0.0825,0.0848,0.086,0.087,0.0906,0.0935,0.0939,0.0958,0.0965,0.0985,0.1002,0.0992,0.1049,0.1031,0.1035,0.1074,0.1093,0.1096,0.1099,0.117,0.1181,0.119,0,0,0,0,0,0,0.0814,0.0853,0.0866,0.09,0.093,0.0941,0.0966,0.0977,0.1004,0.1016,0.1012,0.1018,0.1069,0.1061,0.1041,0.1108,0.1069,0.1073,0.1121,0.1132,0.114,0.1139,0.1015,0,0,0,0,0,0.0824,0.0854,0.0886,0.0915,0.0935,0.0956,0.0976,0.0992,0.1013,0.1027,0.104,0.1058,0.1079,0.1099,0.1111,0.1149,0.1141,0.1177,0.1185,0.1192,0.1194,0.1214,0.1224,0.1113,0.1113,0.1113,0,0,0.0835,0.0855,0.0877,0.0917,0.094,0.0971,0.0969,0.1012,0.104,0.1028,0.1077,0.109,0.1096,0.1139,0.1162,0.1143,0.1223,0.1197,0.1203,0.12,0.1218,0.1229,0.1239,0.1115,0.1115,0.1114,0,0,0.0856,0.0886,0.0919,0.0945,0.0993,0.1004,0.1026,0.1059,0.1082,0.1127,0.1128,0.1166,0.1197,0.1208,0.1217,0.128,0.1266,0.1292,0.1338,0.1359,0.1368,0.1376,0.1391,0.1399,0.1298,0.1298,0.1298,0,0.0868,0.0905,0.0934,0.0966,0.0994,0.1023,0.1061,0.1085,0.1129,0.1149,0.1157,0.1216,0.1225,0.1274,0.13,0.13,0.1308,0.13,0.137,0.1377,0.1384,0.1397,0.1406,0.1302,0.1302,0.1301,0.1301,0,0.0905,0.0945,0.0967,0.1015,0.1049,0.1087,0.1128,0.1166,0.1196,0.1213,0.1279,0.13,0.1331,0.135,0.1348,0.1408,0.1399,0.1377,0.1343,0.14,0.141,0.1418,0.1308,0.1307,0.1306,0.1304,0,0,0.0898,0.0979,0.0988,0.1018,0.1079,0.1105,0.1165,0.1214,0.1254,0.13,0.1347,0.14,0.1415,0.1426,0.1439,0.1466,0.1529,0.1454,0.1453,0.1468,0.1581,0.1526,0.1528,0.1527,0.1528,0.153,0.1574,0,0.0918,0.098,0.102,0.1082,0.1116,0.1164,0.1214,0.1264,0.1309,0.1358,0.1393,0.1441,0.1443,0.1476,0.1507,0.1529,0.1551,0.1519,0.1524,0.1524,0.1467,0.1535,0.1534,0.1579,0.1581,0.1582,0.1583,0,0.0929,0.097,0.1038,0.1113,0.1136,0.1182,0.1262,0.1315,0.1385,0.1424,0.1478,0.1495,0.156,0.1542,0.1611,0.1597,0.1595,0.1601,0.1603,0.1525,0.1482,0.1507,0.1596,0.1594,0.1594,0.1593,0.1592,0,0.0886,0.0975,0.1028,0.1054,0.1148,0.1196,0.1254,0.1335,0.1386,0.147,0.1514,0.1572,0.1623,0.1639,0.1668,0.1645,0.1729,0.1686,0.1628,0.1624,0.1623,0.1614,0.1709,0.1709,0.1709,0.1709,0.1709,0,0.0866,0.0905,0.1018,0.1043,0.1108,0.1192,0.1272,0.1335,0.1433,0.1489,0.1553,0.1603,0.1654,0.1699,0.1695,0.1706,0.1751,0.165,0.1637,0.1656,0.1651,0.1629,0.1619,0.1711,0.171,0.171,0.171,0,0.0795,0.0873,0.0929,0.1045,0.1088,0.1135,0.1271,0.1322,0.1441,0.152,0.1549,0.1647,0.1721,0.176,0.1797,0.1747,0.1749,0.1728,0.177,0.1756,0.1617,0.1611,0.1659,0.1657,0.1656,0.1655,0.1654,0,0.0754,0.0784,0.0911,0.095,0.1007,0.1102,0.1164,0.13,0.136,0.1532,0.1554,0.1667,0.1717,0.174,0.1783,0.1787,0.1756,0.1735,0.1653,0.1632,0.1615,0.1611,0.1607,0.1652,0.1652,0.1651,0.1651,0,0.0667,0.0729,0.0783,0.0878,0.095,0.1016,0.1125,0.1163,0.1324,0.144,0.1526,0.1568,0.1657,0.1691,0.1725,0.1711,0.174,0.1721,0.1721,0.1644,0.1625,0.1608,0.1605,0.1647,0.1647,0.1648,0.1648,0,0.0593,0.0617,0.0715,0.0786,0.087,0.0921,0.0987,0.1085,0.1169,0.1371,0.1392,0.153,0.1638,0.1654,0.1678,0.1684,0.1639,0.1555,0.1563,0.1568,0.1521,0.1482,0.1463,0,0,0,0,0,0.0517,0.0559,0.0619,0.0704,0.0786,0.0844,0.0959,0.1034,0.1194,0.1221,0.1313,0.1388,0.1462,0.1527,0.1513,0.1624,0.1631,0.1599,0.1534,0.1623,0.1628,0.1582,0,0,0,0,0,0,0.0472,0.0532,0.0587,0.0626,0.0674,0.0756,0.0825,0.0929,0.0964,0.1128,0.1176,0.1302,0.139,0.1459,0.1485,0.1506,0.1436,0.1689,0.1685,0.162,0.1625,0.1629,0.1583,0,0,0,0,0]},{"header":{"parameterUnit":"m.s-1","parameterCategory":2,"la1":30.2991,"la2":30.254,"lo1":-89.0895,"lo2":-89.0444,"dy":0.0017,"dx":0.0017,"nx":28,"ny":28,"refTime":"2025-06-10T21:00:00:Z","depth":"4","parameterNumber":3,"parameterNumberName":"V-component_of_CURRENTS"},"data":[0,0,0,0,0,0,0,0,0,0,0,0,0,0,0,0,0,0,0,0,0,0,0,0,0,0,0,0,0,0,0,0,0,0,0,0,0,0,0,0,0,0,0,0,0,0,0,0,0,0,0,0,0,0,0,0,0,0,-0.0015,-0.0016,0,-0.0087,-0.0087,-0.0088,-0.0121,-0.0122,-0.0122,-0.0122,-0.0232,-0.0235,-0.0238,0,0,0,0,0,0,0,0,0,0,0,0,0,0.0064,0.0063,-0.0015,-0.0016,-0.0017,-0.0086,-0.0087,-0.0088,-0.0121,-0.0122,-0.0122,-0.0122,-0.0231,-0.0235,-0.0238,0,0,0,0,0,0,0,0,0,0,0,0,0,0.0017,0.0063,-0.0015,-0.0043,-0.0047,-0.0086,-0.0087,-0.0088,-0.0121,-0.0122,-0.0122,-0.0122,-0.023,-0.0234,-0.0238,-0.026,0,0,-0.0251,-0.0253,0,0,0,0,0,0,0,0,0.002,0.0014,-0.0038,-0.0042,-0.0046,-0.0097,-0.01,-0.0148,-0.0121,-0.0091,-0.0122,-0.0122,-0.0192,-0.0199,-0.0209,-0.0266,-0.027,-0.0252,-0.0254,-0.0256,-0.0257,0,0,0,0,0,0,0,0.0023,0.0017,-0.0041,-0.0039,-0.0044,-0.0063,-0.0069,-0.0109,-0.0138,-0.0094,-0.0097,-0.0108,-0.0194,-0.0205,-0.0212,-0.0272,-0.0252,-0.0255,-0.0258,-0.026,-0.0374,-0.0374,0,0,0,0,0,0,0.0029,0.002,-0.0039,-0.0044,-0.0015,-0.0064,-0.0071,-0.0079,-0.0137,-0.0147,-0.0108,-0.0109,-0.0197,-0.0207,-0.0216,-0.0264,-0.0256,-0.026,-0.0262,-0.0373,-0.0374,-0.0374,0,0,0,0,0,0,0.0031,0.0025,-0.0036,-0.0015,-0.0025,-0.0065,-0.0073,-0.008,-0.0096,-0.0148,-0.0158,-0.0118,-0.0198,-0.021,-0.0251,-0.0268,-0.0262,-0.0266,-0.0372,-0.0373,-0.0374,-0.0348,0,0,0,0,0,0,0.0034,0.0026,0.0026,-0.0015,-0.0026,-0.0056,-0.0074,-0.0081,-0.0103,-0.0106,-0.016,-0.017,-0.0199,-0.0245,-0.0255,-0.0273,-0.0269,-0.0372,-0.0373,-0.0374,-0.0348,-0.0348,-0.0348,0,0,0,0,0,0.0037,0.004,0.0027,0.0019,-0.0025,-0.0056,-0.0063,-0.0092,-0.0104,-0.0107,-0.0144,-0.0168,-0.0258,-0.0248,-0.0261,-0.028,-0.0371,-0.0373,-0.0374,-0.0349,-0.0348,-0.0348,0,0,0,0,0,0,0.0074,0.0036,0.002,0.0011,-0.002,-0.0062,-0.007,-0.0092,-0.0123,-0.0127,-0.0174,-0.0187,-0.0234,-0.0257,-0.0245,-0.0316,-0.032,-0.0323,-0.0296,-0.0296,-0.0296,-0.0273,-0.0273,0,0,0,0,0,0.0081,0.0074,0.0032,0.0024,0.001,-0.0031,-0.0047,-0.0067,-0.0103,-0.0117,-0.0157,-0.02,-0.0247,-0.027,-0.0312,-0.0346,-0.0361,-0.0368,-0.0367,-0.0367,-0.0356,-0.0398,-0.04,-0.0378,-0.0378,-0.0378,0,0,0.0086,0.007,0.0061,0.0031,0.0005,-0.0015,-0.004,-0.0063,-0.0081,-0.0125,-0.016,-0.0204,-0.0258,-0.0299,-0.0322,-0.032,-0.0378,-0.0368,-0.0367,-0.0357,-0.0399,-0.0402,-0.0403,-0.0379,-0.0379,-0.0378,0,0,0.0094,0.0084,0.0075,0.0057,0.0023,0.0001,-0.0006,-0.005,-0.007,-0.0106,-0.0151,-0.0196,-0.0259,-0.0301,-0.0331,-0.0352,-0.0379,-0.0372,-0.0349,-0.039,-0.0392,-0.0394,-0.04,-0.0403,-0.0367,-0.0367,-0.0367,0,0.0099,0.0087,0.0068,0.0057,0.0043,0.0008,-0.0006,-0.0031,-0.0082,-0.0096,-0.0112,-0.0211,-0.0259,-0.0316,-0.0326,-0.0352,-0.0366,-0.0346,-0.0389,-0.0391,-0.0393,-0.04,-0.0403,-0.0366,-0.0366,-0.0366,-0.0367,0,0.0093,0.0087,0.0083,0.006,0.0047,0.0032,-0.0003,-0.002,-0.0046,-0.0073,-0.0129,-0.0193,-0.0246,-0.028,-0.0312,-0.036,-0.036,-0.0386,-0.0386,-0.0394,-0.04,-0.0404,-0.0365,-0.0365,-0.0365,-0.0366,0,0,0.0079,0.0077,0.0074,0.008,0.0049,0.0044,0.0019,-0.001,-0.0013,-0.0069,-0.0087,-0.0181,-0.0206,-0.0242,-0.0297,-0.0336,-0.0369,-0.0363,-0.0366,-0.036,-0.0435,-0.0413,-0.0415,-0.0406,-0.0407,-0.0408,-0.0427,0,0.0071,0.0079,0.0068,0.007,0.0071,0.0048,0.0039,0.0017,-0.0011,-0.003,-0.01,-0.0139,-0.0196,-0.022,-0.0272,-0.035,-0.0381,-0.036,-0.0435,-0.0436,-0.041,-0.042,-0.0411,-0.043,-0.0431,-0.0431,-0.0432,0,0.0054,0.0072,0.0079,0.0101,0.0098,0.0094,0.0094,0.0076,0.0043,0.0024,-0.0026,-0.0072,-0.0145,-0.0188,-0.0308,-0.0292,-0.0355,-0.0411,-0.0413,-0.0403,-0.0422,-0.0426,-0.0439,-0.0439,-0.0438,-0.0438,-0.0437,0,0.0074,0.0076,0.0096,0.0098,0.0111,0.0113,0.0112,0.0093,0.01,0.0056,0.0065,-0.003,-0.0065,-0.0171,-0.0283,-0.0298,-0.0398,-0.0435,-0.0469,-0.0467,-0.0491,-0.0489,-0.0509,-0.0509,-0.0508,-0.0508,-0.0508,0,0.008,0.0098,0.0113,0.0131,0.017,0.015,0.0178,0.0168,0.0156,0.0178,0.0096,0.0092,-0.0064,-0.0137,-0.0254,-0.0361,-0.0377,-0.0457,-0.0475,-0.0478,-0.0474,-0.0492,-0.049,-0.0509,-0.0509,-0.0509,-0.0509,0,0.0112,0.0114,0.015,0.0173,0.0186,0.0215,0.0245,0.0264,0.0243,0.0266,0.0259,0.0188,0.0086,-0.0054,-0.0214,-0.0303,-0.0423,-0.0456,-0.0413,-0.043,-0.0467,-0.0464,-0.0495,-0.0494,-0.0494,-0.0494,-0.0493,0,0.0143,0.0159,0.0201,0.0231,0.0245,0.0282,0.0313,0.0312,0.033,0.0327,0.0342,0.0269,0.0203,0.0016,-0.0155,-0.0355,-0.0394,-0.0441,-0.0491,-0.0453,-0.0469,-0.0466,-0.0463,-0.0493,-0.0493,-0.0492,-0.0492,0,0.02,0.02,0.0233,0.0291,0.0333,0.0387,0.042,0.0451,0.0446,0.0442,0.0427,0.0327,0.0224,0.0043,-0.0102,-0.0257,-0.0411,-0.0438,-0.0441,-0.0488,-0.0451,-0.0466,-0.0464,-0.0491,-0.0491,-0.0491,-0.0491,0,0.024,0.0268,0.029,0.0345,0.0401,0.0453,0.048,0.0497,0.052,0.0506,0.0505,0.0381,0.0303,0.0096,-0.0046,-0.0188,-0.0242,-0.0299,-0.031,-0.0314,-0.0271,-0.0199,-0.0169,0,0,0,0,0,0.027,0.0289,0.0339,0.039,0.0443,0.047,0.0529,0.0541,0.0553,0.0559,0.053,0.0432,0.0233,0.0142,0.0004,-0.0064,-0.0281,-0.0232,-0.0355,-0.0483,-0.0484,-0.0466,0,0,0,0,0,0,0.0283,0.0323,0.0337,0.0405,0.044,0.0501,0.054,0.0557,0.055,0.0546,0.0443,0.0392,0.0193,0.0309,-0.0002,-0.0046,-0.0143,-0.0329,-0.0332,-0.0482,-0.0483,-0.0485,-0.0466,0,0,0,0,0]}]]